NOAA 16 DEB, 41233

Orbit data source: Space-Track

NOAA 16 DEB, 41233 is space debris in SSO originally from a launch on Thu, 21 Sep 2000 UTC launched from the Air Force Western Test Range (AFWTR). Debris objects in space refer to the collection of defunct objects orbiting the Earth. Examples of debris include non-operational satellites, rocket bodies, and fragments generated from explosions, collisions, or faulty payload assembly.

Loading next visibility...
Identifier
41233, 2000-055EN
Orbit
SSO
Country
Flag of USUS
Related business
Manufacturer
Unknown
Mission
Spacecraft
Bus & Motor
Unknown
Mass
Unknown
Launch date (UTC)
2000-09-21 (25 years ago)
Launch vehicle
Unknown
Launch site
Air Force Western Test Range (AFWTR)
Object type
Payload
Rocket body
Debris
Shape & HBR
Unknown shape, 0.1 m
Radar Cross Section
Small (<0.1 m²)

Expand to show TLE details & history
Last TLE update: 1 day ago

TLE from 1 day ago
0 NOAA 16 DEB
1 41233U 00055EN  25342.04446841  .00004768  00000-0  22429-2 0  9996
2 41233  98.7014  18.2207 0037853 330.9127  28.9940 14.20046433514015
Epoch: 2025-12-08T01:04Z
TLE epoch observation values (Epoch: 2025-12-08T01:04:02.070Z)
Latitude
-0.00009°
Longitude
-74.83706°
Altitude
804.281 km
Speed
7.464 km/s
True Right ascension
01h 12m 52s
True Declination
0° 00' 00"
Sunlit
Object was in full shadow at epoch
Visualization orbit readout
Latitude
Unknown
Longitude
Unknown
Altitude
Unknown
Speed
Unknown
Apparent Right ascension
Unknown
Apparent Declination
Unknown
Sunlit
N/A
Visualization observer readout
Local Sidereal Time
00:24:23
Azimuth
Unknown
Elevation
Unknown
Doppler factor
Unknown
Orbital elements
Apogee altitude
849.61 km
Perigee altitude
795.098 km
Semi-major axis
7,200.491 km
Eccentricity
0.00379
Inclination
98.7014°
RAAN
18.2207°
Arg. of periapsis
330.9127°
True anomaly
29.20513°
Mean anomaly
28.994°
Eccentric anomaly
29.09948°
Mean motion
3.55222 °/min
Orbital period
101.35 mins
BSTAR
0.0022429
Loading maneuver chart data...
Computing Atmospheric mass density...
Loading historical data...
Loading historical data...
Loading historical data...
Loading historical data...
Loading historical data...
Loading historical data...
Loading historical data...

Documentation

Showing up to 5 results
|